Content
SEND FEEDBACK

Daily
Averages
Monthly
Summary
United States of America

CLARKSTON, WASHINGTON


Home > North America > United States > Washington
Elevation: 363 meters     Latitude: 46 23N     Longitude: 117 05W

WEATHER
 
SELECT A DAY
Number of Records: 187,146;   Date Range: 1/1/95 - 7/23/14
 
SHARE

PRINT THIS DATA

[ ← Previous Day ]
WEATHER ALMANAC - 5 FEBRUARY, 2013
[ Next Day → ]
[ °F ]   °C
Weather ElementAverageHighLow
Temperature7.7 °C12.8 °C (1:56 pm)5 °C (11:56 pm)
Dewpoint1.3 °C3.3 °C (11:56 am)0 °C (7:56 am)
Humidity64.9 %76 % (1:56 am)47 % (1:56 pm)
Barometer1012.9 hPa1015.2 hPa (1:56 am)1010.5 hPa (1:56 pm)
Wind Speed10.3 km/h31.5 km/h (2:56 pm)
Wind Gust42.6 km/h (2:56 pm)
Weather ElementAverage
Visibility16.1 km
Wind DirectionESE (122.2 °)

Weather ElementTotal
Precipitation0.25 mm
Heating Degree Days9.4 (Base 18.3)
Averaged from 23 records on 5 February, 2013
WEATHER CONDITIONS BREAKOUT
WIND DIRECTION BREAKOUT
WEATHER BY HOUR - 5 FEBRUARY, 2013
[ °F ]   °C
Local TimeTemperatureDewpointHumidityBarometerVisibilityWind DirectionWind SpeedGust SpeedPrecipitationEventsConditions
1:56 AM5.6 °C1.7 °C76 %1015.2 hPa16.1 kmEast (80°)13 km/h0.25 mmOvercast
2:56 AM5.6 °C1.1 °C73 %1013.9 hPa16.1 kmENE (70°)18.5 km/hOvercast
3:56 AM6.1 °C1.1 °C71 %1013.2 hPa16.1 kmEast (100°)18.5 km/hOvercast
4:56 AM6.7 °C0.6 °C65 %1013.2 hPa16.1 kmSE (130°)16.7 km/hPartly Cloudy
5:56 AM6.1 °C1.1 °C71 %1012.5 hPa16.1 kmESE (110°)22.2 km/hClear
6:56 AM6.7 °C0.6 °C65 %1012.2 hPa16.1 kmESE (120°)25.9 km/hOvercast
7:56 AM6.1 °C0 °C65 %1012.9 hPa16.1 kmVariable5.6 km/hClear
8:56 AM7.8 °C0.6 °C61 %1012.5 hPa16.1 kmCalmScattered Clouds
9:56 AM7.8 °C2.2 °C68 %1012.9 hPa16.1 kmCalmOvercast
10:56 AM8.9 °C2.2 °C63 %1012.2 hPa16.1 kmCalmOvercast
11:56 AM8.3 °C3.3 °C71 %1011.9 hPa16.1 kmNNW (330°)9.3 km/hPartly Cloudy
12:56 PM10.6 °C1.7 °C54 %1011.2 hPa16.1 kmCalmClear
1:56 PM12.8 °C1.7 °C47 %1010.5 hPa16.1 kmNW (320°)7.4 km/hClear
2:56 PM11.1 °C1.7 °C53 %1011.2 hPa16.1 kmWNW (300°)31.5 km/h42.6 km/hOvercast
3:56 PM9.4 °C2.8 °C64 %1011.9 hPa16.1 kmWNW (300°)11.1 km/h0 mmRainLight Rain
4:56 PM9.4 °C2.2 °C61 %1011.9 hPa16.1 kmSW (220°)9.3 km/h0 mmOvercast
5:56 PM7 °C3 °C76 %1011.9 hPa16.1 kmSE (130°)11.1 km/hMostly Cloudy
6:56 PM7.2 °C1.1 °C65 %1012.9 hPa16.1 kmSouth (190°)11.1 km/hClear
7:56 PM7.2 °C0 °C60 %1013.2 hPa16.1 kmSW (220°)18.5 km/hClear
8:56 PM7.8 °C0 °C58 %1013.9 hPa16.1 kmCalmPartly Cloudy
9:56 PM7.2 °C0 °C60 %1014.2 hPa16.1 kmCalmOvercast
10:56 PM5.6 °C0.6 °C70 %1014.6 hPa16.1 kmSouth (190°)7.4 km/hScattered Clouds
11:56 PM5 °C1 °C76 %1014.6 hPa16.1 kmCalmMostly Cloudy
Hourly data recorded from KLWS, located 0 kilometers away from Clarkston, Washington







STORIES FROM OUR PARTNERS